Hayward, WI

4:35 PM CST on February 23, 2017 (GMT -0600)
Sawyer County

Weather History for KHYR - July, 2013

Change the Weather History Date:

Saturday, July 13, 2013

  Actual Average Record
Temperature  
Mean Temperature 74 °F -  
Max Temperature 79 °F 84 °F 95 °F (2006)
Min Temperature 69 °F 57 °F 41 °F (2001)
Cooling Degree Days 9    
Growing Degree Days 24 (Base 50)    
Moisture  
Dew Point 61 °F    
Average Humidity 64    
Maximum Humidity 70    
Minimum Humidity 57    
Precipitation  
Precipitation 0.00 in - - ()
Sea Level Pressure  
Sea Level Pressure 30.05 in    
Wind  
Wind Speed 8 mph (South)    
Max Wind Speed 14 mph    
Max Gust Speed 17 mph    
Visibility 10 miles    
Events Rain    
Averages and records for this station are not official NWS values.
T = Trace of Precipitation, MM = Missing Value Source: NWS Daily Summary

Daily Weather History Graph

Daily Weather History Graph

Search for Another Location

Airport or City:

Trip Planner

Search our weather history database for the weather conditions in past years. The results will help you decide how hot, cold, wet, or windy it might be!

Date:

Astronomy

Jul. 13, 2013 Rise Set
Actual Time 5:28 AM CDT 8:54 PM CDT
Civil Twilight 4:50 AM CDT 9:31 PM CDT
Nautical Twilight 4:01 AM CDT 10:20 PM CDT
Astronomical Twilight 2:58 AM CDT 11:23 PM CDT
Moon 11:04 AM CDT (7/13) 11:13 PM CDT (7/13)
Length of Visible Light 16h 40m
Length of Day
15h 26m
Waxing Crescent, 26% of the Moon is Illuminated
Jul 13
Waxing Crescent
Jul 15
First Quarter
Jul 22
Full
Jul 29
Last Quarter
Aug 6
New

Hourly Weather History & Observations

Time (CDT) Temp. Dew Point Humidity Pressure Visibility Wind Dir Wind Speed Gust Speed Precip Events Conditions
12:53 AM 72.0 °F 57.9 °F 61% 30.00 in 10.0 mi South 5.8 mph - N/A   Partly Cloudy
1:53 AM 73.0 °F 57.0 °F 57% 29.99 in 10.0 mi South 13.8 mph 17.3 mph N/A   Partly Cloudy
2:53 AM 72.0 °F 55.9 °F 57% 29.99 in 10.0 mi South 8.1 mph - N/A   Clear
3:53 AM 72.0 °F 55.9 °F 57% 29.96 in 10.0 mi South 8.1 mph 16.1 mph N/A   Clear
4:53 AM 72.0 °F 55.9 °F 57% 30.03 in 10.0 mi SSW 5.8 mph - N/A   Overcast
5:53 AM 72.0 °F 55.9 °F 57% 30.03 in 10.0 mi South 5.8 mph - N/A   Overcast
6:37 AM 71.6 °F 57.2 °F 60% 30.05 in 10.0 mi SSW 8.1 mph 16.1 mph N/A   Overcast
6:53 AM 70.0 °F 57.9 °F 65% 30.04 in 10.0 mi SSW 5.8 mph - 0.00 in Rain Light Rain
7:48 AM 69.8 °F 59.0 °F 68% 30.05 in 10.0 mi South 8.1 mph - 0.00 in   Mostly Cloudy
7:53 AM 69.1 °F 59.0 °F 70% 30.04 in 10.0 mi South 9.2 mph - 0.00 in   Mostly Cloudy
8:26 AM 69.8 °F 59.0 °F 68% 30.06 in 10.0 mi SSW 9.2 mph - N/A   Overcast
8:53 AM 71.1 °F 59.0 °F 66% 30.04 in 10.0 mi South 8.1 mph - N/A   Mostly Cloudy
9:53 AM 71.1 °F 60.1 °F 68% 30.05 in 10.0 mi South 9.2 mph - N/A   Overcast
10:53 AM 73.9 °F 62.1 °F 66% 30.05 in 10.0 mi SSE 8.1 mph - N/A   Mostly Cloudy
11:08 AM 75.2 °F 62.6 °F 65% 30.06 in 10.0 mi SSE 10.4 mph - N/A   Partly Cloudy
11:34 AM 75.2 °F 62.6 °F 65% 30.07 in 10.0 mi Variable 3.5 mph - N/A   Mostly Cloudy
11:53 AM 75.9 °F 64.0 °F 67% 30.06 in 10.0 mi South 9.2 mph - N/A   Overcast
12:35 PM 78.8 °F 64.4 °F 61% 30.07 in 10.0 mi South 9.2 mph 17.3 mph N/A   Scattered Clouds
12:53 PM 79.0 °F 64.9 °F 62% 30.06 in 10.0 mi South 11.5 mph - N/A   Partly Cloudy
1:53 PM 75.9 °F 64.9 °F 69% 30.07 in 10.0 mi South 8.1 mph - N/A   Overcast
2:53 PM 75.9 °F 64.9 °F 69% 30.07 in 10.0 mi South 3.5 mph - N/A   Overcast
3:53 PM 75.9 °F 64.0 °F 67% 30.07 in 10.0 mi Variable 5.8 mph - N/A   Overcast
4:53 PM 77.0 °F 64.0 °F 64% 30.05 in 10.0 mi SSE 10.4 mph 17.3 mph N/A   Overcast
5:53 PM 75.9 °F 64.0 °F 67% 30.06 in 10.0 mi SSW 5.8 mph - N/A   Overcast
6:53 PM 75.9 °F 64.9 °F 69% 30.06 in 10.0 mi South 6.9 mph - N/A   Overcast
7:53 PM 75.0 °F 63.0 °F 66% 30.07 in 10.0 mi South 5.8 mph - N/A   Clear
8:53 PM 73.9 °F 63.0 °F 68% 30.07 in 10.0 mi South 3.5 mph - N/A   Mostly Cloudy
9:53 PM 73.0 °F 62.1 °F 68% 30.08 in 10.0 mi South 4.6 mph - N/A   Overcast
10:53 PM 73.0 °F 61.0 °F 66% 30.10 in 10.0 mi South 4.6 mph - N/A   Mostly Cloudy
11:53 PM 73.0 °F 60.1 °F 64% 30.11 in 10.0 mi South 5.8 mph - N/A   Overcast